GFSCGP_prec_cthk_135.txt.gz
RH
71 59 55 48 42 39 33 32 29 26 24 22 24 21 19 17 17 17 18 20 20 19 20 21 16 13 12 11 12 14 16 18 24 25 26 25 26 26 25 25 27 27 27 26
67 64 54 49 41 38 36 38 35 28 24 24 23 22 20 19 19 19 19 19 19 19 20 18 14 13 12 13 13 15 17 24 26 25 25 26 27 26 27 28 27 27 26 22
67 55 51 47 43 39 38 39 36 33 28 26 24 23 21 21 22 22 22 20 18 17 14 14 13 12 12 14 16 18 23 27 26 23 23 24 26 27 27 27 25 24 21 19
65 52 50 50 51 44 39 39 37 36 36 38 29 37 27 24 24 24 22 19 16 13 12 13 12 12 14 17 21 25 27 26 23 21 21 22 23 25 24 22 20 17 14 12
69 56 52 53 51 45 39 38 40 38 37 38 32 38 24 25 22 20 17 15 13 13 13 13 13 15 18 23 27 26 25 24 21 20 19 20 20 19 18 17 15 12 9 8
69 58 56 52 50 46 41 41 44 45 44 49 36 35 30 25 21 20 17 15 15 16 17 18 19 21 25 27 25 25 22 20 20 17 16 17 18 19 17 16 12 10 9 9
72 68 59 55 50 46 43 47 57 45 47 45 41 32 23 25 24 22 21 19 19 19 19 22 26 28 26 24 21 20 19 16 14 13 15 17 18 17 16 13 11 10 11 11
78 71 63 56 49 45 44 48 48 39 50 49 37 31 21 24 24 22 21 22 23 23 26 28 26 23 20 19 19 16 13 12 13 14 16 17 17 17 15 12 11 12 12 13
74 73 61 55 48 45 42 51 43 43 42 46 38 28 28 27 26 22 22 23 25 26 24 21 20 20 20 20 17 14 14 14 15 16 16 17 18 17 16 14 14 14 15 16
65 72 62 56 53 48 44 40 40 48 42 39 44 30 38 30 26 28 29 28 24 22 21 21 23 23 22 18 14 14 14 16 17 17 18 19 20 19 17 16 16 16 17 19
63 66 65 57 56 50 46 42 41 39 46 51 45 39 29 31 30 30 28 25 23 24 24 22 21 17 12 12 13 14 16 17 17 16 18 20 20 20 20 19 19 19 20 22
70 66 75 64 60 53 47 42 36 40 36 39 40 36 31 31 29 26 25 23 20 17 15 14 13 11 11 13 14 17 17 16 16 17 18 19 21 22 22 23 24 24 26 27
66 68 73 65 57 54 44 37 34 33 36 35 36 32 32 31 28 25 21 18 15 14 13 12 12 14 15 15 16 16 18 18 18 19 20 19 20 21 22 24 27 31 32 31
55 54 53 46 40 39 38 31 30 30 41 34 37 30 34 31 28 23 20 16 14 13 13 15 16 17 18 18 18 19 20 20 21 22 22 23 24 24 25 26 29 32 35 37
43 43 43 37 36 33 30 29 31 32 32 34 33 30 32 31 25 24 21 16 14 15 17 18 18 18 19 21 23 25 25 26 26 27 28 28 29 29 30 31 32 35 37 40
37 40 36 36 32 31 31 33 37 37 35 36 37 35 29 26 23 18 15 15 17 18 19 19 20 20 22 24 26 27 28 29 30 30 29 29 29 32 34 35 36 36 37 38
38 41 40 35 31 31 27 29 31 36 36 33 32 27 26 24 20 19 18 18 20 20 21 21 22 23 24 27 28 30 30 30 29 30 31 32 33 33 32 33 33 34 37 41
41 41 42 47 34 27 20 22 22 24 25 26 24 21 19 19 21 21 20 20 21 22 23 25 27 27 28 29 30 31 31 31 31 31 31 30 28 27 27 28 30 32 36 38
38 37 41 40 39 22 19 17 19 20 20 18 20 21 22 23 22 21 24 25 25 25 27 28 29 29 30 30 28 27 25 26 26 25 23 21 22 22 24 25 26 27 29 31
28 28 28 33 25 25 19 18 17 17 17 19 20 22 23 21 24 26 26 24 25 27 28 28 27 28 28 28 29 29 31 31 30 29 27 27 28 27 26 26 26 26 27 28
34 32 34 35 36 28 22 21 20 17 16 21 21 22 22 26 29 29 29 29 30 30 30 31 32 33 33 33 34 34 32 32 30 28 27 27 28 28 29 29 30 31 31 32
31 37 37 36 37 33 24 23 22 23 24 24 24 26 27 30 31 31 32 32 33 34 34 35 35 35 35 34 32 30 28 26 25 26 28 27 26 27 26 27 29 30 30 32
32 30 35 33 32 27 27 26 27 27 28 30 30 31 32 33 34 35 37 37 36 37 35 34 33 32 29 25 22 22 23 25 27 28 27 27 27 26 26 26 27 28 31 32
42 42 43 39 39 39 37 36 36 35 35 34 34 35 36 37 38 38 39 39 38 36 35 33 32 31 28 28 29 30 28 27 26 25 24 24 24 23 24 27 28 29 29 30
43 44 44 44 42 43 42 40 39 38 38 38 39 40 41 41 42 41 38 37 37 37 36 37 38 39 40 40 38 34 30 27 25 23 21 18 17 18 21 24 28 31 31 32
44 43 44 44 42 41 40 42 43 42 42 43 44 45 46 44 42 40 39 38 37 38 40 43 45 45 45 41 36 28 24 23 21 18 16 15 15 16 17 19 21 27 30 33

GFSCGP_prec_cthk_138.txt.gz
RH
82 68 61 50 47 39 33 29 28 28 26 24 24 20 21 20 20 19 19 19 19 18 16 20 21 19 16 14 12 12 13 14 18 23 23 22 24 25 25 24 24 25 25 24
81 66 59 52 50 43 38 33 31 28 26 24 24 23 20 19 18 17 16 17 18 18 20 21 20 18 16 15 14 14 15 16 22 24 22 22 23 23 23 23 24 24 23 22
80 65 63 56 51 45 41 35 32 29 27 25 24 23 21 20 19 18 18 17 18 18 18 18 17 16 15 14 15 16 18 21 25 25 21 21 21 20 21 22 21 19 17 15
78 69 63 57 50 45 42 38 33 30 27 34 22 30 19 19 19 19 19 20 21 21 18 15 14 14 14 14 16 19 23 26 26 23 19 19 19 19 18 17 16 15 13 11
67 69 63 57 51 46 41 41 36 32 32 27 25 30 18 20 19 21 24 24 21 19 15 13 13 14 15 18 21 25 27 25 22 19 17 17 17 16 17 17 16 15 12 9
69 61 60 55 53 48 43 45 42 40 37 44 30 29 22 27 26 26 24 21 18 16 15 16 16 16 19 23 26 26 23 20 18 17 15 14 15 17 16 16 15 12 10 10
67 65 61 53 53 51 47 46 55 49 50 48 46 37 27 31 30 27 25 22 19 19 19 18 19 21 24 25 23 20 18 18 16 14 12 13 16 17 17 16 14 11 10 11
83 75 68 60 53 49 50 46 50 40 49 52 46 43 27 31 29 26 24 22 21 21 22 23 24 22 21 20 19 19 19 16 15 14 13 15 17 17 17 16 14 13 13 13
79 74 65 60 56 52 49 52 46 46 50 48 46 33 33 29 25 24 22 22 22 22 20 20 21 21 20 20 20 20 18 14 14 14 15 16 17 18 18 18 16 15 15 15
68 75 66 60 55 50 47 45 49 52 46 37 49 36 36 31 28 27 25 24 22 22 23 23 22 21 19 19 18 16 13 13 14 17 17 16 16 18 19 19 18 16 16 16
62 62 67 57 55 50 49 46 47 46 48 51 49 38 30 31 27 29 25 24 25 24 24 22 19 18 15 13 12 12 14 16 17 16 17 17 17 18 20 20 20 21 21 21
66 64 70 58 56 52 50 44 43 42 37 44 40 36 30 29 27 26 26 25 23 22 17 14 13 13 13 11 12 14 15 17 18 19 20 20 21 21 22 24 28 31 30 31
70 66 69 58 54 54 50 45 40 41 40 37 34 27 32 30 28 26 25 23 19 16 15 14 14 13 12 14 16 17 17 18 20 23 23 24 24 25 26 26 26 27 28 31
73 73 58 54 48 49 49 46 42 39 46 35 37 29 32 31 28 27 24 21 18 17 14 13 12 13 15 17 18 19 21 23 24 25 25 25 26 28 28 28 29 32 35 37
64 63 65 57 54 50 48 43 41 37 30 30 24 27 29 31 29 27 23 22 20 16 14 13 15 17 17 17 19 21 23 24 26 26 28 29 28 28 29 31 32 33 34 35
50 52 51 53 42 38 37 36 35 33 30 29 30 30 28 30 29 26 24 19 15 14 15 17 19 18 19 21 22 23 24 26 26 26 27 28 29 30 31 30 29 30 30 30
42 44 42 36 35 31 26 25 29 31 29 30 35 30 29 29 26 25 22 18 16 16 19 20 20 20 23 25 25 27 27 28 28 28 27 27 26 26 27 26 26 26 27 28
40 41 41 45 31 25 19 23 24 30 32 30 29 28 25 24 24 22 19 18 19 21 22 21 23 25 26 27 26 24 24 25 25 26 26 27 28 28 27 25 24 25 25 26
41 41 45 42 37 25 23 23 24 23 21 25 24 24 23 22 21 20 21 21 23 24 23 25 26 25 24 23 25 28 29 29 29 29 30 30 30 28 27 26 27 28 28 28
38 38 35 41 27 23 20 21 20 18 17 17 19 20 21 23 25 23 22 23 23 24 27 26 25 27 29 31 31 31 31 31 32 30 27 26 25 25 26 28 29 28 28 29
31 32 33 35 34 25 19 20 19 16 13 18 19 21 22 23 22 22 24 26 28 30 29 30 32 33 33 32 32 31 28 25 22 22 22 24 27 31 31 30 30 30 29 29
30 35 37 35 34 24 21 22 20 19 21 22 22 22 23 23 25 26 29 31 31 33 36 36 35 35 34 31 30 29 28 28 28 26 24 27 29 29 31 32 30 29 28 26
32 26 30 28 27 25 25 24 23 24 25 25 25 25 26 27 30 34 36 37 37 38 37 36 35 33 34 36 36 36 35 35 34 31 28 28 27 28 27 26 24 23 25 27
41 41 42 40 37 37 37 36 34 33 33 34 34 35 35 35 37 38 39 40 39 37 36 37 38 40 41 42 43 41 39 35 32 31 30 28 26 23 20 19 19 20 21 22
44 45 44 44 44 43 41 40 40 39 38 38 38 38 39 40 41 42 41 41 40 39 38 40 42 43 43 44 43 38 33 31 32 31 28 24 21 19 18 18 18 16 16 19
43 41 40 40 39 40 40 40 41 40 40 41 42 42 43 44 44 43 43 40 38 39 42 44 44 44 45 43 39 38 36 34 32 29 25 22 20 20 20 20 17 18 18 18

GFSCGP_prec_cthk_144.txt.gz
RH
96 98 84 62 51 43 40 42 45 42 35 32 31 25 26 25 23 21 20 20 21 21 20 19 18 18 16 16 16 19 18 16 15 13 16 19 17 18 19 19 18 18 18 17
98 94 80 67 57 48 40 43 48 45 40 35 33 27 25 25 22 21 20 20 20 20 19 19 18 17 17 18 19 19 19 16 15 15 19 20 18 18 18 18 18 16 15 15
96 92 85 67 59 49 41 40 44 45 44 40 34 31 26 23 22 20 19 19 19 18 18 17 17 17 17 18 18 19 19 16 17 18 21 20 18 17 17 17 15 14 13 13
97 85 82 68 55 48 41 36 40 41 42 47 34 36 23 23 22 21 18 17 16 16 16 16 16 15 15 17 19 19 17 17 19 21 21 18 17 16 16 15 14 13 13 12
91 85 81 68 59 50 42 35 33 36 40 36 30 34 21 20 20 19 18 17 16 16 15 15 15 16 17 18 19 17 17 19 22 20 18 17 16 15 14 14 13 14 13 12
90 85 81 72 63 54 46 36 35 36 36 42 33 31 22 22 19 18 19 17 17 17 17 17 19 20 18 18 17 17 20 22 20 18 18 18 15 13 13 15 14 16 15 12
94 83 79 72 68 61 50 43 55 51 50 47 39 30 22 20 23 20 19 18 17 18 19 22 23 21 19 17 18 21 21 18 19 19 20 19 15 14 14 15 17 17 16 14
92 90 77 74 68 62 55 42 49 47 50 46 39 33 21 21 25 23 21 20 20 21 23 25 23 21 19 20 19 17 17 19 21 21 20 17 15 15 15 17 18 18 17 15
84 84 75 71 66 62 56 54 40 47 46 46 44 30 23 25 27 25 25 25 26 28 27 26 23 19 17 16 18 20 20 20 19 17 15 15 16 17 18 17 18 20 20 20
74 82 75 70 67 63 55 53 52 54 46 37 43 37 35 32 32 32 33 32 32 30 25 21 18 17 17 17 18 18 18 16 15 15 15 15 17 18 19 21 22 24 26 27
61 72 74 69 70 64 60 55 53 51 51 48 41 34 34 34 35 35 35 33 28 24 20 18 17 18 18 19 18 16 14 13 14 15 17 19 20 21 23 25 26 28 28 29
68 69 78 68 68 65 61 52 48 48 42 53 43 38 36 36 36 33 33 27 25 21 19 19 20 19 17 15 15 14 13 14 14 16 19 21 22 22 23 24 25 26 25 26
73 71 74 66 63 63 60 55 50 47 46 46 45 31 36 36 36 34 26 24 21 21 21 20 19 17 16 16 15 14 14 15 17 19 20 20 22 23 25 25 25 25 25 28
75 69 61 60 53 55 56 54 51 47 52 40 37 29 34 34 32 28 25 21 22 22 21 20 20 19 18 16 15 14 15 17 19 21 22 24 25 25 25 25 24 25 26 27
73 73 65 59 58 55 51 49 50 46 40 37 30 32 26 29 29 27 25 25 24 23 22 23 21 18 17 16 15 16 17 19 21 23 24 24 23 22 21 21 23 25 26 27
68 73 63 63 55 52 50 50 49 46 40 36 35 33 26 24 25 25 25 25 25 25 25 24 20 18 17 17 17 19 21 23 22 21 21 22 24 24 23 24 26 27 26 27
64 67 68 61 55 51 47 42 45 44 40 38 38 31 27 24 24 21 23 25 26 27 26 24 19 18 18 20 21 22 22 22 23 24 24 23 23 23 24 23 23 25 26 26
55 60 62 63 49 50 39 37 35 40 39 36 31 29 24 21 21 23 25 27 27 26 25 19 18 20 22 22 22 23 25 25 24 23 22 21 23 24 24 24 24 24 24 24
51 53 56 53 47 34 29 31 31 31 24 26 26 25 23 24 25 26 27 26 26 23 19 19 22 22 22 24 26 27 26 23 22 23 26 28 29 30 29 27 25 23 24 28
44 43 38 42 28 21 19 24 24 23 21 19 22 24 26 27 31 27 25 24 23 20 20 23 24 25 27 28 29 26 25 29 31 33 34 34 34 32 28 25 26 29 33 33
50 50 48 48 39 23 18 22 22 17 16 19 20 20 22 23 22 22 21 21 22 22 24 26 27 29 30 30 31 31 33 35 37 38 39 38 34 31 26 26 29 32 34 35
32 34 37 38 33 20 20 22 20 18 18 19 20 21 21 21 21 21 21 22 24 26 27 30 34 37 37 35 34 35 37 39 41 41 41 39 36 33 32 34 37 38 37 37
30 24 25 26 22 17 23 23 22 21 21 22 23 24 25 25 25 25 25 27 32 38 40 41 40 39 36 36 37 39 40 42 43 44 43 39 37 39 41 41 41 40 39 37
36 33 31 31 28 29 27 29 30 29 30 30 30 32 35 37 38 38 39 40 41 41 41 41 39 38 38 39 41 43 44 45 45 43 41 40 41 41 42 42 41 40 38 37
49 51 50 50 45 44 43 42 42 42 41 41 41 40 40 39 39 39 40 41 42 42 41 41 41 41 42 43 45 45 45 45 45 43 44 43 42 42 42 40 38 35 33 32
47 45 44 42 38 38 38 37 37 39 39 40 39 38 38 39 40 42 43 43 43 42 41 41 42 44 45 46 49 49 48 48 48 47 44 43 43 41 36 32 28 24 21 19

GFSCGP_prec_cthk_147.txt.gz
RH
95 95 98 94 74 57 43 47 45 41 35 33 40 37 37 34 32 28 25 23 23 24 23 21 21 19 18 15 15 15 15 16 16 15 15 16 17 16 16 16 17 17 15 14
97 95 95 91 80 64 56 50 50 43 36 34 36 33 33 31 29 26 23 21 21 22 20 20 20 18 16 16 16 17 17 17 17 17 17 18 18 16 17 16 17 15 13 12
96 95 96 89 76 70 61 52 49 43 38 35 35 33 29 30 28 24 23 22 21 20 20 19 18 17 16 17 17 18 18 17 18 18 18 19 17 16 16 17 16 14 12 11
98 96 91 84 71 64 58 51 47 44 40 45 37 41 27 28 27 22 21 20 20 19 19 18 18 17 16 16 18 18 18 18 18 19 20 18 16 16 16 16 15 13 12 12
97 97 89 79 68 57 56 53 50 47 45 42 39 37 26 26 26 23 20 19 19 19 17 17 17 15 16 17 18 19 20 18 19 20 19 16 16 16 15 14 14 13 13 13
93 93 82 78 66 57 51 50 50 50 55 56 47 35 25 26 23 21 21 20 17 16 15 15 16 21 16 17 18 19 19 20 21 20 17 17 18 18 15 13 13 14 15 14
92 90 82 75 66 56 49 51 65 61 61 55 49 35 23 21 25 23 22 20 18 18 17 18 19 18 18 19 19 20 20 22 19 17 18 19 20 18 14 13 14 15 16 16
92 92 79 77 65 57 51 46 53 52 52 46 42 35 21 20 26 23 21 21 18 18 19 20 20 21 22 23 22 21 21 17 18 20 20 20 17 15 15 15 16 16 18 20
86 90 79 77 69 60 54 52 39 48 47 43 42 31 24 24 27 25 23 21 21 20 20 21 21 23 24 24 20 16 17 19 20 19 18 16 15 15 16 17 17 18 20 22
74 84 80 75 69 63 53 49 48 49 47 37 39 35 32 29 28 27 26 24 23 22 22 23 25 24 22 18 16 16 17 17 17 16 16 16 16 16 18 19 20 21 23 24
72 73 78 72 70 64 60 54 51 48 45 40 37 29 25 25 26 26 26 25 25 25 27 27 25 21 17 16 17 17 16 15 15 16 16 17 18 19 21 21 21 23 24 26
67 73 77 71 73 69 61 53 49 47 42 47 36 28 29 29 28 30 30 31 31 30 28 23 21 18 18 18 15 14 15 15 16 16 16 17 18 20 21 22 23 24 24 25
62 63 77 70 69 68 63 57 54 51 49 48 41 31 37 37 35 35 36 33 31 29 25 23 19 18 16 16 16 16 16 16 15 16 17 19 20 22 23 23 24 24 23 23
69 63 66 68 61 63 62 59 54 49 52 42 41 32 35 37 36 36 35 31 27 24 22 20 19 19 18 18 18 18 16 16 16 17 19 20 22 22 22 21 20 21 21 21
78 71 68 62 64 63 58 57 57 49 42 39 30 32 27 32 33 31 29 26 24 22 21 21 21 21 20 19 18 18 17 17 18 20 21 20 21 21 21 20 20 19 20 22
75 77 68 66 60 58 56 52 51 49 44 40 36 34 29 26 28 26 25 24 24 23 23 23 24 24 22 20 19 19 20 20 20 21 21 22 21 19 17 18 17 19 22 24
73 73 72 64 60 54 50 46 48 45 42 38 38 32 31 31 29 24 21 20 22 24 25 26 27 25 22 20 20 20 20 21 22 22 22 19 18 20 22 23 24 26 26 25
65 66 67 65 52 51 40 42 41 43 40 37 34 33 32 28 27 24 21 21 23 26 27 28 27 23 20 20 20 20 22 23 23 21 21 22 25 29 30 30 30 29 27 26
63 62 64 58 52 44 37 37 38 37 31 31 33 33 31 27 24 22 23 25 27 28 28 27 23 19 20 20 22 25 26 24 23 24 26 32 34 36 36 36 34 31 29 29
48 52 53 57 44 36 26 31 30 29 27 23 27 27 27 26 28 26 27 27 28 28 27 23 20 21 22 25 27 27 25 26 30 34 37 39 40 40 40 39 36 35 34 32
53 52 48 47 40 31 22 24 26 21 18 21 23 23 24 25 25 26 27 27 26 24 22 22 22 25 27 29 30 33 35 35 38 40 41 42 42 42 39 38 37 36 35 34
38 45 49 48 40 27 19 23 22 19 20 22 23 23 23 23 23 22 22 22 22 22 24 26 28 31 38 40 38 37 38 39 41 43 44 44 43 42 40 39 39 39 40 41
31 24 24 26 22 16 23 24 24 23 23 23 24 25 25 25 24 24 23 23 25 27 31 38 41 41 40 39 39 39 40 42 44 45 44 44 43 43 43 44 43 42 42 39
36 31 29 28 25 25 24 25 27 28 28 28 27 28 29 30 30 31 34 38 40 41 41 41 42 42 41 41 41 42 43 44 45 45 46 47 47 48 48 44 43 40 34 29
52 54 50 48 45 44 44 42 42 41 41 41 41 41 40 41 40 38 39 40 41 42 43 42 41 41 42 43 44 44 44 46 48 50 51 52 51 46 43 40 34 28 23 19
49 49 49 46 40 38 38 38 37 38 38 38 39 39 39 39 40 41 42 43 43 44 43 43 43 43 44 46 48 47 49 52 53 53 51 46 42 39 34 26 21 19 17 15

GFSCGP_prec_cthk_150.txt.gz
RH
85 91 97 96 97 79 65 41 34 39 35 36 41 38 37 41 40 37 34 32 30 29 27 25 24 22 22 18 16 15 14 14 14 14 15 16 18 17 16 16 16 16 17 15
96 94 94 97 96 86 72 50 41 38 39 37 40 43 42 43 41 35 31 31 29 28 27 26 24 23 22 18 17 15 16 16 16 15 16 17 19 17 16 16 16 16 15 14
92 92 90 91 97 81 71 58 46 39 39 37 40 47 44 45 41 36 31 28 28 27 27 26 24 24 20 18 17 17 17 17 16 16 17 18 19 16 16 16 16 15 14 12
97 91 85 86 97 78 70 53 51 42 39 45 41 53 42 41 39 34 30 27 24 24 24 24 23 22 19 17 17 18 17 17 16 17 19 21 18 16 15 16 15 15 14 12
95 93 88 90 88 73 67 55 57 46 42 40 38 43 32 36 34 31 28 26 24 23 21 21 21 20 19 17 17 18 18 18 18 18 21 21 16 16 16 17 15 14 13 13
94 97 95 87 78 71 64 57 59 53 45 50 38 32 28 25 27 27 24 23 22 21 20 20 20 19 18 17 18 20 18 19 19 22 23 18 17 18 19 19 15 13 14 14
95 88 82 77 69 64 62 64 85 79 78 57 41 31 23 23 23 25 23 21 21 21 18 17 17 16 16 17 22 22 18 19 22 24 19 17 19 20 19 17 14 13 14 15
95 87 75 74 70 58 59 61 71 81 67 57 45 35 26 23 28 26 24 22 22 20 18 18 19 19 18 19 21 18 19 24 25 18 18 19 20 19 17 15 15 15 16 17
88 86 74 72 68 59 53 60 52 57 55 44 41 34 30 26 30 28 25 23 22 23 22 21 23 21 20 21 19 21 25 22 19 18 18 19 18 17 16 16 16 17 19 20
76 79 77 74 67 59 52 50 53 47 53 39 39 36 28 27 26 28 24 21 23 24 26 25 22 21 20 21 21 22 20 19 17 17 19 17 18 18 18 18 19 20 21 22
76 74 77 73 71 62 55 52 48 43 39 30 27 22 23 22 24 26 24 23 24 25 24 22 21 20 20 20 20 19 18 17 16 16 16 17 19 19 20 20 19 20 21 23
72 73 77 73 72 67 56 49 42 40 41 36 30 23 24 24 24 25 26 25 25 25 24 22 21 20 20 21 20 19 15 14 15 15 16 17 18 18 19 20 21 22 22 23
66 72 77 73 68 67 60 51 46 42 40 37 33 25 28 27 24 27 26 26 26 25 24 23 23 24 23 21 19 16 15 15 16 16 17 17 18 19 20 20 20 19 20 20
69 60 68 66 63 64 60 56 49 44 42 34 31 26 28 30 27 27 28 28 28 27 26 26 25 24 23 20 18 17 17 17 17 18 18 18 19 19 20 20 19 17 16 15
79 68 68 68 69 67 63 57 54 49 42 38 33 29 26 31 31 31 31 32 31 30 29 25 24 22 21 19 19 19 18 18 19 20 19 19 20 20 18 16 16 16 17 18
77 78 69 67 64 65 62 57 51 49 45 40 37 34 29 28 31 31 31 32 31 29 27 24 23 22 21 22 22 20 20 20 20 19 20 20 18 15 17 19 20 20 21 23
74 75 74 67 59 59 56 48 47 43 41 37 37 31 30 29 29 28 26 25 24 25 24 23 23 23 25 25 23 22 21 20 20 20 19 16 18 21 22 23 25 28 31 31
71 71 70 66 54 57 44 45 42 41 39 36 34 32 29 28 28 28 26 24 22 22 22 23 25 27 28 25 23 20 19 20 21 19 19 22 24 26 28 32 35 37 37 36
66 62 64 58 52 45 39 41 42 38 33 34 35 32 32 31 30 28 28 25 23 22 24 26 28 30 27 23 19 20 22 23 22 22 23 27 32 37 39 40 39 38 37 37
60 61 56 55 52 45 34 35 36 36 30 28 30 29 31 32 30 27 24 23 24 26 27 29 30 28 23 20 22 24 25 24 24 28 35 38 40 41 42 41 40 40 40 39
49 53 54 53 50 40 31 30 31 27 24 26 28 28 26 27 25 25 24 25 27 29 30 29 28 23 22 23 27 27 28 33 36 38 40 42 43 43 43 42 42 42 42 43
36 43 44 44 43 40 28 27 25 23 24 25 26 25 23 24 24 25 25 25 26 26 26 26 24 25 28 30 33 38 38 38 40 42 44 45 44 43 43 44 45 46 46 43
27 24 22 27 24 19 24 26 25 24 24 25 26 27 26 25 25 25 25 25 26 26 26 28 31 35 40 41 40 39 40 42 45 46 46 45 46 47 47 48 48 45 41 38
35 31 25 23 20 19 20 22 26 27 28 28 28 29 29 28 29 28 27 28 30 33 37 42 43 42 41 41 42 43 45 46 47 47 48 49 49 50 49 46 40 38 33 26
54 53 45 38 33 33 33 33 32 32 32 33 33 33 34 34 35 35 36 39 40 40 41 43 43 43 43 44 44 45 46 47 48 49 50 50 48 44 38 36 32 26 23 22
46 48 50 48 44 42 41 41 40 41 41 40 39 39 39 39 39 38 40 43 45 45 45 44 44 44 45 46 47 47 48 48 48 49 47 43 37 34 30 25 24 23 22 20

GFSCGP_prec_cthk_153.txt.gz
RH
88 86 79 71 74 81 93 95 73 54 38 32 37 44 51 41 36 37 39 43 44 41 40 35 30 27 22 20 18 16 16 14 14 14 14 14 18 16 16 16 15 15 15 15
92 89 84 90 93 97 98 94 68 56 45 31 32 48 49 44 38 39 38 39 38 38 36 33 30 25 23 21 19 17 16 16 16 16 15 16 16 16 16 15 15 15 15 14
95 96 95 95 98 99 95 74 66 65 43 32 40 54 49 45 44 42 41 42 39 33 30 29 29 26 24 22 20 18 17 17 17 16 16 17 17 17 15 15 14 15 15 13
98 94 94 94 96 98 79 67 65 49 50 42 48 57 49 45 43 42 40 39 35 32 30 28 28 26 24 22 20 19 18 18 18 16 16 17 18 18 15 15 15 16 16 14
96 95 90 89 88 91 82 70 74 45 45 43 47 59 44 45 45 41 40 37 33 31 29 26 26 25 25 23 20 19 19 19 18 17 17 18 19 17 15 15 17 18 16 14
96 94 92 84 87 82 73 69 67 50 50 67 40 47 54 39 40 42 39 35 31 27 27 27 27 27 26 22 20 19 18 19 20 20 19 20 20 17 17 18 18 18 16 13
92 94 86 87 78 71 69 68 80 75 91 66 49 44 47 35 36 37 35 33 29 26 24 23 24 23 22 20 19 18 19 21 23 21 20 22 19 19 18 18 19 19 17 15
94 89 87 77 74 69 66 72 69 78 71 67 51 44 38 33 30 32 31 31 27 25 24 22 21 20 19 18 17 18 19 23 22 20 23 20 20 19 18 18 18 18 17 16
80 83 73 73 72 67 67 74 64 67 59 57 48 39 36 32 29 28 29 28 24 23 22 23 20 18 18 17 19 20 19 21 23 22 20 21 20 18 17 18 19 18 18 18
74 81 70 69 68 64 64 60 71 68 73 58 44 37 40 29 28 26 27 27 25 23 23 23 22 22 21 21 23 23 21 23 20 19 21 20 20 18 19 21 21 19 18 18
74 70 73 69 70 67 56 62 63 58 55 51 42 38 32 29 25 28 26 26 25 24 24 25 24 22 23 25 25 21 19 17 18 20 20 18 17 19 21 22 19 19 19 20
72 73 77 76 70 67 58 62 58 52 47 42 36 35 32 26 26 25 27 28 27 25 24 23 23 27 26 22 19 18 16 18 20 18 17 16 17 18 19 20 19 19 19 19
72 70 77 73 68 67 62 56 54 49 45 40 39 35 30 29 27 26 25 25 26 24 23 23 24 24 21 20 18 18 19 19 18 18 17 18 18 19 20 19 18 18 18 16
65 63 69 76 70 66 61 58 52 49 48 35 33 29 31 28 25 27 25 26 26 23 22 23 24 23 22 20 21 21 22 21 19 18 19 19 20 20 20 19 16 14 14 15
77 75 63 68 71 70 60 57 55 52 45 41 32 28 25 28 25 26 27 27 27 25 24 24 22 21 23 23 24 22 21 21 20 20 20 21 21 21 17 14 14 16 17 18
83 83 69 69 67 66 66 51 51 51 45 40 35 31 26 26 27 28 27 27 27 26 25 25 26 26 25 24 23 23 23 22 22 22 22 21 19 15 15 16 18 22 23 24
78 78 74 69 62 62 64 50 46 46 45 40 37 33 30 29 29 28 28 29 30 29 29 29 29 28 28 26 25 25 24 23 23 22 21 17 15 16 19 22 25 27 30 33
75 74 77 72 58 61 51 52 46 43 43 42 38 36 33 31 31 32 31 30 29 28 28 27 27 27 26 25 27 27 25 23 21 21 18 17 18 22 25 28 33 37 38 37
68 67 66 65 55 48 43 46 49 43 38 38 38 36 35 34 32 31 32 30 28 26 25 25 24 25 26 28 29 27 23 21 21 19 19 20 24 29 36 39 39 39 39 40
60 62 60 58 57 49 37 40 44 42 37 34 33 32 31 33 31 29 30 30 29 27 26 25 26 27 29 31 28 23 22 21 21 21 24 28 37 40 40 41 41 42 42 42
54 57 60 59 56 46 38 34 36 38 35 33 32 31 29 30 30 32 31 29 28 26 25 26 28 30 31 28 24 22 23 24 25 29 37 40 41 42 43 44 44 44 44 45
38 46 49 50 52 51 35 30 29 31 31 31 31 30 27 28 28 30 29 27 27 27 28 28 28 28 27 24 25 27 28 34 39 40 41 43 45 45 45 45 46 47 46 41
28 27 29 39 36 29 27 29 28 28 27 28 28 30 29 28 28 28 27 28 27 26 26 27 28 27 27 30 34 40 40 40 41 44 45 46 46 46 46 47 46 41 34 31
39 32 24 20 18 18 22 25 27 29 29 29 29 30 29 29 29 29 28 28 29 30 30 30 31 35 40 41 40 40 42 44 46 47 47 47 47 48 46 41 35 31 26 24
55 50 42 34 27 27 27 28 29 29 30 31 31 32 34 33 33 32 31 31 31 33 37 40 41 41 42 42 42 44 46 47 48 48 47 47 45 41 35 31 26 24 25 25
45 49 51 50 48 44 42 40 37 35 34 34 33 34 35 36 37 38 38 38 39 40 43 44 44 44 44 45 46 47 47 46 46 47 45 41 34 30 25 23 22 23 22 21

GFSCGP_prec_cthk_156.txt.gz
RH
84 81 76 73 65 68 75 73 66 60 72 90 77 48 45 48 49 41 39 42 46 60 64 59 47 39 31 25 19 17 15 15 14 14 14 14 14 15 14 13 13 14 15 14
94 90 80 78 77 79 76 74 71 71 78 86 77 45 55 57 58 46 39 42 44 56 57 51 44 37 30 25 20 17 17 16 16 15 16 15 16 16 14 12 13 14 14 13
97 92 95 93 96 95 92 91 84 76 84 85 61 45 59 55 63 53 42 42 43 49 51 45 41 35 29 24 20 18 17 17 17 17 17 16 17 16 14 13 14 14 15 14
98 97 97 98 97 98 98 88 92 98 83 78 57 60 65 55 62 55 45 44 44 45 49 44 39 33 27 23 21 19 19 19 18 18 17 16 17 16 14 13 14 15 16 15
95 98 97 99 96 98 95 81 90 83 72 66 48 61 60 55 60 52 46 46 44 43 42 40 34 31 27 24 22 21 20 20 19 18 17 18 17 17 15 15 16 18 16 16
95 97 96 92 86 92 88 81 85 88 73 76 53 59 63 55 46 50 46 43 41 40 37 33 31 29 27 25 24 22 21 21 19 19 18 17 22 19 16 17 19 18 16 15
93 95 88 87 86 84 81 79 98 98 86 79 53 65 63 44 40 42 42 43 42 38 34 31 29 28 26 25 24 23 23 21 19 20 19 21 25 19 17 20 19 18 17 17
97 96 88 80 82 76 73 75 84 79 79 77 60 67 60 65 49 37 41 42 39 35 32 31 29 27 26 26 25 25 22 19 19 20 20 23 22 20 21 20 20 18 16 18
95 88 79 74 74 71 70 84 70 78 73 78 69 55 55 60 51 39 42 42 39 34 30 27 26 26 25 25 24 21 19 19 20 20 22 23 21 20 19 20 19 18 18 20
77 86 69 66 71 70 71 75 85 84 96 81 73 52 68 51 51 42 38 36 34 32 28 26 24 23 21 19 18 18 18 20 21 25 26 20 20 19 19 20 19 19 19 21
78 77 78 67 72 76 73 76 72 74 74 92 67 54 46 41 40 40 37 34 32 30 27 27 25 23 20 20 20 20 21 24 25 24 19 18 20 17 19 20 19 19 21 21
74 75 83 75 69 69 69 67 71 78 74 80 58 50 41 35 36 33 32 32 32 29 28 26 24 22 22 22 22 22 24 23 20 17 17 17 16 18 20 19 19 20 20 19
71 75 86 73 69 66 66 64 65 66 66 67 65 52 43 39 36 32 31 31 31 30 28 26 24 23 22 21 24 24 22 17 17 17 17 18 19 21 20 20 20 20 18 14
66 69 72 86 87 70 66 63 60 62 75 60 49 49 47 38 37 34 32 32 31 29 26 24 23 22 22 22 23 22 19 18 18 19 19 21 22 20 20 21 20 15 14 14
78 78 69 65 69 72 66 62 60 59 59 54 44 43 37 36 35 33 32 31 30 26 24 23 22 22 23 23 21 19 19 20 20 22 23 23 22 22 22 18 15 15 17 19
78 84 76 65 61 65 66 61 55 57 57 54 43 40 34 32 33 33 31 29 27 25 24 23 23 23 22 20 20 21 20 22 24 25 24 23 23 21 16 15 17 20 22 24
80 82 83 79 63 62 61 56 52 54 53 51 43 41 36 34 32 31 30 29 28 27 26 25 24 23 23 24 24 25 26 27 27 25 24 24 20 16 17 19 22 24 26 29
77 79 82 85 64 70 51 51 47 51 49 48 45 40 36 34 33 32 30 29 28 26 26 26 26 26 26 26 28 28 28 28 27 25 23 19 17 18 20 23 26 29 34 39
70 74 76 76 68 56 48 46 47 48 45 45 45 41 39 34 32 31 31 29 28 27 27 26 26 26 26 27 27 28 29 28 27 23 20 18 20 21 25 30 36 41 41 41
64 66 70 68 63 56 42 41 46 44 44 40 41 41 38 38 38 35 35 33 32 32 30 30 29 28 27 26 28 30 30 28 23 20 20 21 24 29 38 42 42 42 42 43
53 65 70 70 68 53 44 37 41 44 43 42 41 42 39 38 36 37 36 35 34 33 32 31 29 28 27 30 31 31 28 22 22 23 25 31 39 42 43 44 44 45 46 45
41 52 59 63 63 60 41 36 34 41 40 39 40 38 35 34 33 34 34 34 33 32 31 29 28 29 31 31 30 27 24 26 27 35 40 42 43 45 45 46 48 47 43 34
35 32 37 47 47 42 33 31 29 31 36 36 35 34 32 31 30 31 32 32 31 30 30 30 30 29 30 30 27 28 31 39 40 42 44 46 47 47 47 47 43 36 30 25
46 39 32 22 21 24 28 29 29 30 32 33 33 34 34 34 34 33 32 32 31 31 30 30 31 32 31 31 37 41 41 44 46 47 48 47 47 47 44 37 30 26 22 21
57 56 47 38 28 22 24 25 28 30 30 31 31 33 34 34 34 33 33 32 33 33 34 34 33 36 40 42 44 46 47 48 48 46 46 45 43 36 29 25 22 21 21 21
52 51 55 49 45 41 37 34 32 32 32 32 33 34 35 35 35 36 35 35 34 35 38 40 43 46 47 47 48 48 47 46 45 44 42 35 28 25 22 21 20 20 19 20

GFSCGP_prec_cthk_159.txt.gz
RH
88 84 88 90 90 92 86 79 72 70 72 74 68 71 58 48 62 58 47 49 54 52 55 63 70 72 66 46 30 22 17 15 14 13 13 14 14 15 14 13 12 13 12 14
91 91 83 82 78 77 70 67 64 64 67 70 66 66 56 55 63 54 51 49 50 50 59 65 70 71 60 44 31 23 17 15 14 14 15 16 16 15 14 13 12 12 13 14
91 91 91 92 95 97 91 81 79 74 74 72 69 68 73 57 63 57 55 53 45 43 48 64 71 71 59 42 30 23 18 16 16 16 17 18 17 16 14 13 11 11 14 16
92 95 98 98 97 98 97 89 90 87 94 84 81 84 71 58 58 65 62 59 50 48 49 64 68 66 53 40 29 23 19 18 17 18 19 18 18 17 15 14 12 14 16 17
93 97 98 99 98 98 95 96 98 97 94 96 93 94 57 56 67 71 67 59 50 47 45 59 63 59 48 38 28 23 21 19 19 19 19 19 19 18 15 14 16 19 19 16
93 97 96 93 91 92 93 96 94 98 93 92 76 70 55 64 57 76 70 60 49 46 46 57 61 55 44 36 28 24 22 21 21 21 20 20 20 18 16 18 19 19 17 17
88 96 93 90 94 91 97 97 97 98 97 88 72 67 48 33 63 68 63 57 47 45 46 50 54 46 39 33 28 25 23 22 22 22 22 22 21 22 19 18 19 19 18 18
90 94 89 84 86 84 89 85 96 97 87 79 67 70 44 49 52 52 53 51 47 46 44 45 46 40 37 32 30 27 25 24 23 22 22 22 21 20 19 19 19 20 19 18
90 87 77 81 74 75 76 93 82 78 79 79 70 58 53 63 59 62 57 55 51 44 43 40 37 35 34 31 28 27 26 25 23 23 23 21 21 19 21 20 20 20 18 19
77 82 73 69 70 74 72 75 90 90 90 78 85 53 59 69 64 57 60 55 49 45 41 39 36 33 31 30 29 28 27 24 23 23 22 21 21 23 23 23 19 19 19 20
76 79 77 70 73 76 72 79 84 88 97 95 85 60 60 69 72 52 51 50 46 42 39 37 35 32 31 29 28 26 24 23 22 22 22 22 22 22 22 20 20 19 20 20
68 71 83 76 71 69 71 69 76 89 92 97 95 65 63 58 60 60 53 49 45 41 38 35 32 29 26 24 22 22 22 22 23 23 21 22 22 20 19 20 19 21 21 19
77 73 82 82 73 70 68 68 68 71 91 90 90 64 59 53 48 57 55 49 45 41 39 35 33 30 27 24 24 25 24 23 19 22 22 20 18 19 19 19 22 21 20 16
81 74 76 85 84 80 75 68 66 67 87 77 70 61 55 52 48 52 51 48 42 40 38 33 31 28 27 26 25 23 21 21 24 23 21 20 19 20 21 23 22 18 16 16
82 85 81 71 68 72 73 69 64 62 68 71 60 57 47 47 48 44 42 42 40 39 34 31 29 28 27 25 23 21 21 23 23 21 20 21 21 24 24 22 18 17 17 18
82 85 84 80 65 61 66 64 63 59 62 65 54 51 48 44 47 46 43 39 36 34 32 30 29 27 25 23 22 22 22 22 22 22 23 25 26 25 22 18 17 18 21 23
79 83 87 83 71 63 65 56 59 53 57 56 51 48 47 42 46 44 41 39 36 32 30 28 27 25 24 23 22 22 23 24 25 26 27 28 25 21 18 18 20 22 24 26
73 80 85 85 71 72 58 52 52 51 53 53 48 47 45 41 40 41 37 35 32 29 28 28 28 27 25 25 25 26 27 27 28 28 28 25 21 19 19 20 23 26 30 37
69 74 79 78 74 62 52 52 50 51 49 51 46 46 42 38 37 36 35 34 33 31 30 30 29 28 28 28 28 28 27 28 29 28 26 22 20 20 21 25 30 38 41 42
56 71 73 74 68 64 48 49 47 50 47 45 45 45 45 40 38 35 35 34 33 32 31 30 29 28 26 27 28 29 29 30 30 28 23 20 21 24 30 38 42 42 43 45
49 60 74 74 74 61 51 48 45 46 45 44 44 43 42 42 40 39 39 39 38 35 35 34 34 34 33 32 31 30 32 32 28 23 23 26 31 38 42 44 45 46 46 45
45 53 62 70 69 62 46 41 43 47 46 45 47 44 43 39 38 38 39 39 38 37 38 38 37 34 32 31 32 32 32 27 25 28 32 39 43 45 47 47 47 44 39 32
47 43 42 51 52 45 38 34 36 41 44 45 43 42 42 39 36 35 36 37 37 37 36 35 33 31 31 32 32 32 28 31 34 40 44 47 48 47 46 44 40 33 26 22
59 49 41 31 26 32 29 31 30 34 37 39 39 39 40 37 36 34 33 33 33 33 32 32 31 32 33 35 34 35 36 41 45 48 49 48 45 43 40 33 26 23 21 20
54 56 53 44 33 27 26 28 27 31 33 35 36 37 36 35 36 35 35 35 35 35 35 36 37 38 38 37 40 44 47 49 49 47 44 42 39 33 26 23 22 21 20 21
48 50 53 52 44 39 35 33 33 32 32 33 33 35 36 36 36 36 36 36 36 37 37 38 38 41 45 47 49 49 48 45 43 41 39 32 25 23 22 21 21 22 22 23

GFSCGP_prec_cthk_162.txt.gz
RH
76 80 83 80 86 86 92 95 92 85 81 80 71 61 42 42 48 66 71 77 73 63 61 64 59 68 74 73 65 48 31 21 16 15 14 13 13 15 15 14 13 12 12 11
79 83 83 86 88 91 87 89 83 75 73 69 67 58 47 50 52 61 70 74 69 67 61 63 64 71 72 71 68 52 32 22 17 15 15 15 16 17 16 15 14 13 12 12
84 79 86 90 95 96 93 90 75 66 60 63 66 60 50 43 48 49 66 72 67 59 55 58 62 72 72 71 72 56 33 24 18 16 16 17 18 18 17 15 14 13 13 13
83 84 93 98 98 99 96 88 95 93 94 83 78 69 52 43 48 47 57 71 58 58 58 54 62 72 73 76 72 56 33 25 19 17 18 18 19 19 18 16 14 14 14 16
80 89 91 94 94 96 90 93 97 98 98 98 93 90 51 50 56 46 44 52 50 52 53 50 62 77 77 79 69 49 34 27 21 19 19 20 20 21 19 17 15 14 17 18
76 85 91 88 88 89 93 95 99 99 98 97 84 90 61 54 35 37 46 49 58 61 56 52 66 80 82 79 65 46 34 27 22 21 21 21 21 22 20 18 15 16 18 20
70 80 84 89 93 94 97 99 96 97 98 91 83 95 69 58 50 48 46 46 52 60 55 50 64 78 80 75 60 46 34 27 24 23 23 22 23 23 22 19 19 18 19 18
74 76 81 84 86 84 91 94 98 97 97 86 81 89 64 55 58 51 53 49 55 58 52 52 62 74 74 68 55 42 33 28 25 25 24 24 24 25 23 20 17 17 18 20
78 76 66 75 73 76 79 91 89 93 85 91 80 66 59 59 58 58 70 69 67 57 52 53 62 68 70 56 47 40 34 30 28 27 26 25 26 26 23 20 18 19 22 22
68 77 68 70 70 74 79 81 90 95 96 92 82 67 72 66 62 57 66 70 67 61 58 55 57 62 61 52 45 41 37 33 30 29 27 27 26 26 22 19 21 23 22 21
81 76 70 71 76 75 79 86 86 89 99 97 95 79 59 69 61 57 55 55 57 63 59 56 55 57 53 48 45 40 38 35 33 29 28 27 27 23 20 21 22 23 20 20
82 82 77 71 72 75 75 77 80 87 97 97 98 83 63 69 62 60 60 55 64 67 61 56 52 47 45 45 43 40 37 34 30 28 27 27 23 21 21 22 24 21 20 20
83 84 86 66 71 75 77 78 74 82 91 92 98 68 65 70 69 66 60 62 72 69 64 57 51 46 43 41 39 36 33 29 30 29 27 23 22 21 24 24 22 21 22 20
85 87 85 86 75 73 78 80 75 74 90 93 81 65 63 66 63 68 66 70 72 65 61 55 49 44 40 37 34 31 30 31 29 25 22 22 22 24 24 23 23 24 20 18
81 88 85 84 81 75 70 76 74 69 75 81 68 64 60 62 61 66 73 73 70 65 58 53 47 42 38 35 33 33 31 26 23 22 22 24 25 25 24 24 25 20 19 19
77 85 84 82 75 69 65 64 68 66 67 74 65 58 56 55 58 61 70 70 68 62 57 52 44 39 36 34 32 28 25 24 23 23 24 26 27 27 27 25 21 19 20 22
76 81 87 85 76 70 65 60 63 60 59 61 61 56 52 55 58 57 58 60 59 55 53 46 39 36 34 31 28 26 25 24 25 26 27 29 29 29 24 20 20 21 23 24
76 78 86 87 74 72 59 55 54 54 58 57 56 52 51 50 54 53 49 46 45 43 40 37 35 34 32 29 27 26 26 27 28 30 31 31 29 24 21 21 22 23 26 29
65 77 80 82 77 64 49 51 54 52 56 52 53 50 49 45 48 49 48 46 43 41 38 36 35 33 30 29 28 28 30 32 32 31 30 29 24 22 22 23 25 29 35 40
51 69 78 75 73 67 56 54 46 49 53 48 49 48 47 43 45 42 42 42 42 40 38 35 34 32 31 30 31 32 32 32 32 32 30 27 23 23 26 30 35 41 45 47
52 59 73 77 76 64 56 51 46 49 48 48 49 47 45 43 44 38 37 37 38 37 36 34 34 33 32 31 31 34 35 34 34 33 27 24 26 30 35 42 46 48 46 43
51 56 61 72 73 66 50 46 44 44 45 46 47 45 42 39 39 39 41 40 39 38 37 38 38 38 38 37 37 35 34 35 32 27 28 31 36 43 48 48 46 42 38 29
63 54 50 52 50 45 44 43 45 44 45 44 51 44 44 40 37 39 41 43 43 43 43 43 42 41 39 36 34 34 34 33 30 33 37 45 49 49 46 42 38 30 22 19
55 54 50 42 34 33 32 35 38 41 45 46 47 45 45 42 40 36 37 38 39 39 39 39 38 35 34 34 36 37 35 35 39 47 50 49 45 41 37 29 22 19 18 18
54 57 59 46 39 33 30 29 29 34 37 40 42 43 46 44 43 42 40 38 36 35 35 35 35 36 38 40 38 37 43 49 51 48 44 40 37 29 21 18 18 19 22 23
48 47 49 50 45 42 36 34 33 33 33 35 36 38 39 40 39 39 38 38 39 39 40 41 42 42 40 41 47 51 51 47 43 40 36 27 20 18 19 21 22 24 24 25